Lid_Strength_Index
0 1 1 3 2 2 4 8 13 7 5 9 9 11 11 9 9 7 8 8 10 12 11 13 13 12 11 10 10 12 11 13 17 15 13 12 13 13 13 16 17 17 17 16
-0 0 1 2 2 1 4 10 10 5 4 13 13 11 10 9 10 9 9 10 9 8 11 14 12 11 9 9 9 11 10 14 20 17 14 13 15 13 12 13 15 17 19 16
-0 -0 0 1 1 0 3 8 13 9 7 9 12 12 12 10 9 9 9 9 9 10 11 10 12 11 9 9 8 8 8 13 15 18 15 12 15 14 12 13 17 16 16 14
-0 -0 -0 0 1 0 4 8 11 10 14 13 10 10 10 11 11 8 7 10 10 10 12 12 12 10 10 9 8 9 9 15 13 13 12 12 13 13 13 14 14 16 15 15
0 -0 -0 0 0 0 5 10 11 10 11 11 11 10 11 11 10 9 10 11 9 9 12 11 12 10 10 11 9 10 10 14 13 14 12 12 14 12 12 12 13 13 13 14
1 0 -0 -0 -0 1 6 5 7 9 11 11 12 12 11 10 8 8 7 8 9 11 10 9 9 8 8 9 10 11 11 13 14 17 14 14 16 14 13 12 11 11 13 11
2 1 1 0 -0 1 6 6 7 12 17 12 12 10 9 10 9 10 8 7 9 8 7 7 9 10 10 9 9 8 12 12 13 16 16 20 16 13 11 12 11 9 9 9
2 2 1 1 0 0 4 5 8 9 18 12 12 11 11 9 9 10 9 9 8 7 8 13 17 16 16 16 12 10 9 11 15 20 21 16 15 14 13 14 14 11 11 10
2 2 2 1 1 0 3 4 6 8 15 13 10 12 11 14 15 16 15 11 9 8 11 17 21 21 18 19 15 11 10 10 13 22 19 22 16 12 10 10 15 11 10 10
3 2 2 1 1 1 2 4 3 7 13 12 10 13 11 10 12 14 16 12 10 9 14 18 20 21 15 20 20 15 13 13 15 15 17 17 14 12 9 16 15 12 11 10
3 3 2 2 1 1 2 4 3 6 9 12 9 8 11 12 11 15 13 11 11 12 15 15 18 22 17 18 16 14 14 15 15 14 16 18 11 11 12 11 11 10 10 9
3 3 3 3 2 2 1 7 3 2 7 10 7 7 7 7 8 12 14 14 15 12 16 18 18 20 20 21 22 14 18 14 17 14 14 11 10 10 8 7 8 9 9 9
2 2 2 2 2 2 2 5 4 3 8 9 10 10 8 6 6 6 12 14 10 11 11 16 18 19 16 20 20 18 15 14 16 15 14 14 11 9 7 6 7 9 9 9
2 2 2 2 2 2 1 4 4 4 7 9 11 8 8 6 6 6 7 8 8 8 11 16 19 20 12 17 14 16 14 14 17 17 14 13 12 11 10 9 8 9 9 9
2 2 2 2 2 2 3 3 4 3 6 10 13 11 8 6 6 7 7 8 9 13 14 16 18 15 15 16 13 17 13 13 15 17 12 12 11 10 9 10 10 9 10 10
1 2 2 2 2 2 5 8 4 3 3 9 12 10 10 9 6 6 7 7 8 10 12 16 15 10 13 21 23 12 11 11 10 11 9 9 9 9 9 9 9 9 9 9
-0 0 1 2 1 3 7 8 8 2 2 8 12 12 11 8 8 9 7 8 8 9 11 14 13 11 11 19 19 12 11 11 10 9 10 11 10 10 10 9 9 10 11 11
-1 -1 -1 0 0 1 5 4 1 1 5 7 12 14 10 6 10 10 8 8 8 9 12 14 13 12 14 17 13 11 10 10 10 10 11 12 12 12 11 11 12 13 13 12
-1 -1 -1 1 2 5 7 2 1 1 5 10 13 14 15 8 10 9 10 8 12 10 13 12 12 18 17 13 11 11 15 14 16 17 16 16 16 16 16 17 17 17 16 15
-1 1 4 6 4 0 1 4 5 6 7 8 12 12 15 9 12 13 13 12 15 15 15 10 14 18 11 11 17 19 19 20 20 21 18 22 22 21 21 21 20 19 18 18
2 5 6 5 -0 3 5 8 9 10 12 10 11 11 13 11 15 16 11 14 13 16 17 15 21 21 11 20 21 21 21 22 23 24 23 23 23 23 23 23 23 23 23 23
2 3 2 4 5 7 10 11 10 11 14 11 11 11 11 10 9 12 12 14 15 18 19 18 24 16 24 25 24 25 25 27 28 28 27 26 25 25 26 26 26 26 25 24
2 5 7 9 10 14 15 16 16 16 13 12 11 13 12 11 10 13 14 17 17 15 17 20 18 24 27 29 28 28 29 32 32 31 29 29 29 29 30 28 27 28 27 26
7 9 13 13 13 14 16 14 14 15 12 10 11 17 14 13 16 15 18 17 16 23 27 22 24 29 32 31 31 33 31 32 30 30 30 30 30 30 30 31 30 29 27 26
14 13 18 20 22 22 22 21 21 19 10 11 14 15 13 17 15 15 18 21 22 22 21 22 30 31 31 32 33 34 34 32 33 33 33 31 31 32 32 32 31 30 28 27
22 26 20 21 20 22 25 24 22 22 18 16 13 15 15 16 15 20 23 22 23 20 28 33 31 34 35 35 35 34 34 34 34 34 34 32 33 32 31 32 31 29 28 28
24 27 27 28 26 28 27 26 25 23 19 17 17 18 18 17 21 23 23 22 27 34 37 36 34 34 35 36 36 35 35 35 35 35 34 33 34 34 33 33 29 27 27 27